Location: Trani
(41.2830°N, 16.4170°E)
Time: 17:06:17
(UTC+02:00)

ISS - Pass Details

Date: 13 May 2021
Orbit: 417 x 422 km, 51.6° (Epoch: 18 June)

Event Time Altitude Azimuth Distance (km) Brightness Sun altitude
Exits shadow 02:03:46 10° 326° (NNW) 1,519 -0.5 -28.0°
Reaches altitude 10° 02:03:49 10° 327° (NNW) 1,508 -0.5 -28.0°
Maximum altitude 02:05:44 14° 2° (N) 1,277 -0.5 -27.8°
Drops below altitude 10° 02:07:39 10° 36° (NE) 1,509 0.0 -27.7°
Sets 02:10:31 0° 63° (ENE) 2,375 0.8 -27.5°
